Location: Alumbaugh
(37.5976°N, 83.9299°W)
Time: 02:49:15
(UTC+00:00)

CAS-4B - Visible Passes

Search period start: 26 March 2023 00:00
Search period end: 05 April 2023 00:00
Orbit: 510 x 527 km, 43.0° (Epoch: 25 March)

Date Brightness Start Highest point End Pass type
(mag) Time Alt. Az. Time Alt. Az. Time Alt. Az.
26 Mar ? 09:56:17 18° S 09:58:03 25° SE 10:01:22 10° E visible
27 Mar ? 09:41:05 27° SSE 09:41:49 29° SE 09:45:18 10° E visible
28 Mar ? 09:25:44 33° SE 09:25:44 33° SE 09:29:11 10° E visible
28 Mar ? 11:01:11 10° W 11:05:10 61° NNW 11:09:10 10° ENE visible
29 Mar ? 09:10:17 32° ESE 09:10:17 32° ESE 09:13:00 10° ENE visible
29 Mar ? 10:45:15 12° W 10:48:55 55° NNW 10:52:54 10° ENE visible
30 Mar ? 08:54:44 26° E 08:54:44 26° E 08:56:45 10° ENE visible
30 Mar ? 10:29:41 16° W 10:32:39 51° NNW 10:36:35 10° ENE visible
31 Mar ? 08:39:05 20° E 08:39:05 20° E 08:40:27 10° ENE visible
31 Mar ? 10:14:03 22° WNW 10:16:20 47° NNW 10:20:14 10° ENE visible
01 Apr ? 08:23:22 15° ENE 08:23:22 15° ENE 08:24:06 10° ENE visible
01 Apr ? 09:58:19 28° WNW 10:00:00 44° NNW 10:03:52 10° ENE visible
02 Apr ? 08:07:36 11° ENE 08:07:36 11° ENE 08:07:42 10° ENE visible
02 Apr ? 09:42:33 34° NW 09:43:38 42° N 09:47:28 10° ENE visible
03 Apr ? 09:26:43 38° NNW 09:27:13 40° N 09:31:01 10° ENE visible
04 Apr ? 09:10:51 39° N 09:10:51 39° N 09:14:33 10° ENE visible
04 Apr ? 10:47:09 10° WNW 10:51:00 44° NNE 10:54:52 10° E visible
